Regional Weather Roundup
Issued by NWS

Home | Current Version | Previous Version | Text Only | Print | Product List | Glossary Off
Versions: 1 2 3 4 5 6 7 8 9 10 11 12 13 14 15 16 17 18 19 20 21 22 23 24 25 26 27 28 29 30 31 32 33 34 35 36 37 38 39 40 41 42 43 44 45 46 47 48 49 50

000
ASUS43 KFSD 202202
RWRSD

WEATHER ROUNDUP FOR SOUTH DAKOTA
NATIONAL WEATHER SERVICE SIOUX FALLS SD
400 PM CST MON NOV 20 2017

NOTE: "FAIR" INDICATES FEW OR NO CLOUDS BELOW 12,000 FEET WITH NO
SIGNIFICANT WEATHER AND/OR OBSTRUCTIONS TO VISIBILITY.


SDZ001>005-009-010-012>017-202300-
NORTHWEST AND NORTH CENTRAL SOUTH DAKOTA

CITY           SKY/WX    TMP DP  RH WIND       PRES   REMARKS
BUFFALO          N/A     53  23  31 NW21      29.58R
FAITH            N/A     52  22  30 NW20      29.60R
MOBRIDGE       CLEAR     57  22  25 NW16G24   29.53R
$$

SDZ012>016-024>037-041>051-057-063-072>074-202300-
SOUTHWEST AND SOUTH CENTRAL SOUTH DAKOTA

CITY           SKY/WX    TMP DP  RH WIND       PRES   REMARKS
RAPID CTY ARPT SUNNY     61  20  20 N22G30    29.64R
PIERRE         CLOUDY    59  23  25 NW16      29.55R
CUSTER         CLOUDY    47  16  29 CALM      29.71R
ELLSWORTH AFB  SUNNY     61  21  21 NW22      29.63R
PHILIP         MOSUNNY   61  20  20 NW20G32   29.61R
PINE RIDGE     CLOUDY    58  16  19 NW14      29.68R
SPEARFISH      FAIR      55  21  26 NW16G25   29.67S
WINNER         FAIR      66  20  17 NW10      29.58R
$$

SDZ004>011-016>023-039-040-202300-
NORTHEAST SOUTH DAKOTA

CITY           SKY/WX    TMP DP  RH WIND       PRES   REMARKS
ABERDEEN       CLEAR     57  21  24 W14       29.49R
WATERTOWN      CLOUDY    48  26  42 SW8       29.46R
BROOKINGS      CLOUDY    49  25  39 W3        29.50R
SISSETON         N/A     53  26  35 W15       29.43R
$$

SDZ017-020-022-023-036>040-048>070-202300-
SOUTHEAST SOUTH DAKOTA

CITY           SKY/WX    TMP DP  RH WIND       PRES   REMARKS
SIOUX FALLS    CLOUDY    50  28  42 SW8       29.53S
HURON          CLEAR     60  20  21 W15       29.50R
CHAMBERLAIN    CLOUDY    64  20  18 NW15      29.55R
MITCHELL       CLOUDY    59  23  25 W8        29.53R
YANKTON        CLOUDY    53  27  36 W5        29.57R
$$

ABBREVIATIONS USED IN REMARKS
   TC - TEMPERATURE IN CELSIUS
  WCI - WIND CHILL INDEX
   HX - HEAT INDEX
  VSB - VISIBILITY





USA.gov is the U.S. government's official web portal to all federal, state and local government web resources and services.